Location: Unspecified
(0.0000°N, 0.0000°E)
Time: 22:11:49
(UTC+00:00)

Envisat - Pass Details

Date: 10 August 2022
Orbit: 763 x 765 km, 98.2° (Epoch: 15 August)

Event Time Altitude Azimuth Distance (km) Brightness Sun altitude
Rises 04:25:09 0° 0° (N) 3,212 6.4 -24.1°
Reaches altitude 10° 04:27:32 10° 354° (N) 2,289 5.6 -23.5°
Enters shadow 04:31:53 44° 297° (WNW) 1,051 3.3 -22.5°
